This is the latest recevied weather packets stored in our database for station/object WX2NJ-13. If no packets are shown the sender has not sent any weather packets the latest 10 day(s).
| Time | Temp. | Humidity | Pressure | Rain* | Wind** | Luminosity | Snow |
|---|---|---|---|---|---|---|---|
| 1777307580 | 16.67° C | 44% | 1025.7 hPa | 0 mm | 0.89 m/s, 69° | - | - |
| 1777307279 | 16.67° C | 43% | 1025.7 hPa | 0 mm | 1.79 m/s, 7° | - | - |
| 1777306980 | 16.67° C | 45% | 1025.6 hPa | 0 mm | 1.79 m/s, 359° | - | - |
| 1777306682 | 16.67° C | 48% | 1025.6 hPa | 0 mm | 2.24 m/s, 28° | - | - |
| 1777306380 | 16.67° C | 50% | 1025.7 hPa | 0 mm | 1.34 m/s, 96° | - | - |
| 1777306082 | 17.22° C | 49% | 1025.7 hPa | 0 mm | 2.24 m/s, 329° | - | - |
| 1777305783 | 17.22° C | 46% | 1025.7 hPa | 0 mm | 1.79 m/s, 98° | - | - |
| 1777305481 | 17.78° C | 47% | 1025.7 hPa | 0 mm | 1.79 m/s, 59° | - | - |
| 1777305183 | 17.78° C | 46% | 1025.6 hPa | 0 mm | 0.89 m/s, 281° | - | - |
| 1777304884 | 17.78° C | 47% | 1025.5 hPa | 0 mm | 0.89 m/s, 305° | - | - |
| 1777304583 | 17.78° C | 43% | 1025.4 hPa | 0 mm | 1.34 m/s, 23° | - | - |
| 1777304284 | 17.78° C | 43% | 1025.4 hPa | 0 mm | 1.34 m/s, 51° | - | - |
| 1777303985 | 17.78° C | 44% | 1025.5 hPa | 0 mm | 1.34 m/s, 65° | - | - |
| 1777303683 | 17.78° C | 46% | 1025.5 hPa | 0 mm | 1.79 m/s, 353° | - | - |
| 1777303385 | 18.33° C | 47% | 1025.4 hPa | 0 mm | 1.79 m/s, 89° | - | - |
| 1777303086 | 18.33° C | 46% | 1025.4 hPa | 0 mm | 1.79 m/s, 347° | - | - |
| 1777302785 | 17.78° C | 49% | 1025.4 hPa | 0 mm | 0.45 m/s, 287° | - | - |
| 1777302486 | 17.78° C | 49% | 1025.4 hPa | 0 mm | 1.34 m/s, 18° | - | - |
| 1777302187 | 17.22° C | 49% | 1025.4 hPa | 0 mm | 0.89 m/s, 346° | - | - |
| 1777301886 | 17.22° C | 51% | 1025.4 hPa | 0 mm | 1.34 m/s, 335° | - | - |
| 1777301587 | 17.22° C | 50% | 1025.3 hPa | 0 mm | 1.79 m/s, 60° | - | - |
| 1777301289 | 17.22° C | 48% | 1025.3 hPa | 0 mm | 0.89 m/s, 338° | - | - |
| 1777300987 | 17.22° C | 45% | 1025.3 hPa | 0 mm | 0 m/s | - | - |
| 1777300688 | 17.22° C | 50% | 1025.3 hPa | 0 mm | 1.34 m/s, 316° | - | - |
| 1777300390 | 17.22° C | 52% | 1025.3 hPa | 0 mm | 2.24 m/s, 134° | - | - |
* Rain latest hour (hover to see other rain measurements)
** Current wind speed in m/s (hover to see current wind gust speed)